TimePST,TemperatureF,Dew PointF,Humidity,Sea Level PressureIn,VisibilityMPH,Wind Direction,Wind SpeedMPH,Gust SpeedMPH,PrecipitationIn,Events,Conditions,WindDirDegrees,DateUTC
12:52 AM,39.9,37.0,89,29.89,-9999.0,SW,3.5,-,N/A,,Unknown,230,2013-02-19 08:52:00
1:52 AM,42.1,36.0,79,29.88,-9999.0,West,4.6,-,N/A,,Unknown,260,2013-02-19 09:52:00
2:52 AM,41.0,37.0,86,29.86,-9999.0,South,6.9,-,N/A,,Unknown,190,2013-02-19 10:52:00
3:52 AM,41.0,36.0,82,29.85,-9999.0,WSW,4.6,-,N/A,,Unknown,250,2013-02-19 11:52:00
4:52 AM,41.0,33.1,73,29.86,-9999.0,WSW,11.5,-,N/A,,Unknown,240,2013-02-19 12:52:00
5:52 AM,41.0,34.0,76,29.88,-9999.0,SW,4.6,-,N/A,,Unknown,230,2013-02-19 13:52:00
6:52 AM,41.0,33.1,73,29.88,-9999.0,WSW,9.2,-,N/A,,Unknown,240,2013-02-19 14:52:00
7:52 AM,41.0,34.0,76,29.88,-9999.0,WSW,8.1,-,N/A,,Unknown,240,2013-02-19 15:52:00
8:52 AM,39.9,36.0,86,29.89,-9999.0,WSW,9.2,-,N/A,,Unknown,240,2013-02-19 16:52:00
9:52 AM,42.1,36.0,79,29.88,-9999.0,SW,10.4,-,N/A,,Unknown,220,2013-02-19 17:52:00
10:52 AM,43.0,34.0,71,29.86,-9999.0,SW,12.7,-,N/A,,Unknown,230,2013-02-19 18:52:00
11:52 AM,43.0,35.1,74,29.84,-9999.0,SW,12.7,-,N/A,,Unknown,230,2013-02-19 19:52:00
12:52 PM,43.0,35.1,74,29.82,-9999.0,WSW,16.1,-,N/A,,Unknown,240,2013-02-19 20:52:00
1:52 PM,42.1,39.0,89,29.80,-9999.0,WSW,12.7,-,0.01,,Unknown,240,2013-02-19 21:52:00
2:52 PM,44.1,39.9,85,29.77,-9999.0,SW,16.1,-,N/A,,Unknown,220,2013-02-19 22:52:00
4:52 PM,41.0,39.9,96,29.74,-9999.0,SW,18.4,23.0,0.01,,Unknown,230,2013-02-20 00:52:00
5:52 PM,39.9,-9999,N/A,29.74,-9999.0,WSW,17.3,31.1,N/A,,Unknown,240,2013-02-20 01:52:00
6:52 PM,39.9,-9999,N/A,29.73,-9999.0,SW,20.7,26.5,N/A,,Unknown,230,2013-02-20 02:52:00
7:52 PM,39.9,-9999,N/A,29.72,-9999.0,SW,20.7,31.1,0.03,,Unknown,230,2013-02-20 03:52:00
8:52 PM,39.9,-9999,N/A,29.72,-9999.0,SW,20.7,26.5,0.01,,Unknown,230,2013-02-20 04:52:00
9:52 PM,39.9,-9999,N/A,29.70,-9999.0,SW,13.8,-,N/A,,Unknown,230,2013-02-20 05:52:00
10:52 PM,39.9,-9999,N/A,29.66,-9999.0,SSW,13.8,-,N/A,,Unknown,210,2013-02-20 06:52:00
11:52 PM,36.0,-9999,N/A,29.66,-9999.0,SW,24.2,31.1,0.19,,Unknown,230,2013-02-20 07:52:00